Back to catalog

ARABSAT 6A

AliveCommunicationsGEO
NORAD 44186·PAYLOAD·🇦🇪 UAE🇸🇦 Saudi Arabia

Launched Apr 11, 2019 from Cape Canaveral Space Force Station

Loading…

TLE

FreshSource: Space-Track

Epoch: Sep 14, 2026, 13:56 UTC

1 44186U 19021A   26257.58116771  .00000000  00000-0  00000-0 0  9994
2 44186   0.0212 336.7488 0004587 277.5022 339.0348  1.00263334 27054

Track ARABSAT 6A in real time with AllMySat

Download on the App Store